History Data

Date (GMT-7:00) CPM ACPM uSv/h Latitude Longitude Altitude CO CO2 TVOC HCHO Air Pressure Temperature Humidity Type
2026-07-17 20:18:00 26 19.10 0.130000 41.649648 41.62752893 0 0 0 0 0 0 0 0 STD5.60
2026-07-17 20:12:58 32 18.60 0.160000 41.649648 41.62752893 0 0 0 0 0 0 0 0 STD5.60
2026-07-17 20:07:57 11 17.50 0.055000 41.649648 41.62752893 0 0 0 0 0 0 0 0 STD5.60
2026-07-17 20:02:54 13 16.70 0.065000 41.649648 41.62752893 0 0 0 0 0 0 0 0 STD5.60
2026-07-17 19:57:53 16 15.90 0.080000 41.649648 41.62752893 0 0 0 0 0 0 0 0 STD5.60
2026-07-17 19:52:51 15 17.80 0.075000 41.649648 41.62752893 0 0 0 0 0 0 0 0 STD5.60
2026-07-17 19:47:49 23 20.00 0.115000 41.649648 41.62752893 0 0 0 0 0 0 0 0 STD5.60
2026-07-17 19:42:47 18 19.20 0.090000 41.649648 41.62752893 0 0 0 0 0 0 0 0 STD5.60
2026-07-17 19:37:45 20 17.50 0.100000 41.649648 41.62752893 0 0 0 0 0 0 0 0 STD5.60
2026-07-17 19:32:43 11 16.90 0.055000 41.649648 41.62752893 0 0 0 0 0 0 0 0 STD5.60
2026-07-17 19:27:41 21 19.00 0.105000 41.649648 41.62752893 0 0 0 0 0 0 0 0 STD5.60
2026-07-17 19:22:38 19 20.40 0.095000 41.649648 41.62752893 0 0 0 0 0 0 0 0 STD5.60
2026-07-17 19:17:35 31 19.30 0.155000 41.649648 41.62752893 0 0 0 0 0 0 0 0 STD5.60
2026-07-17 19:12:34 17 17.90 0.085000 41.649648 41.62752893 0 0 0 0 0 0 0 0 STD5.60
2026-07-17 19:07:32 13 17.70 0.065000 41.649648 41.62752893 0 0 0 0 0 0 0 0 STD5.60
2026-07-17 19:02:30 19 18.40 0.095000 41.649648 41.62752893 0 0 0 0 0 0 0 0 STD5.60
2026-07-17 18:57:28 18 17.40 0.090000 41.649648 41.62752893 0 0 0 0 0 0 0 0 STD5.60
2026-07-17 18:52:26 16 18.40 0.080000 41.649648 41.62752893 0 0 0 0 0 0 0 0 STD5.60
2026-07-17 18:47:24 22 19.80 0.110000 41.649648 41.62752893 0 0 0 0 0 0 0 0 STD5.60
2026-07-17 18:42:22 26 19.30 0.130000 41.649648 41.62752893 0 0 0 0 0 0 0 0 STD5.60
2026-07-17 18:37:20 28 17.60 0.140000 41.649648 41.62752893 0 0 0 0 0 0 0 0 STD5.60
2026-07-17 18:32:18 14 19.40 0.070000 41.649648 41.62752893 0 0 0 0 0 0 0 0 STD5.60
2026-07-17 18:27:16 25 18.10 0.125000 41.649648 41.62752893 0 0 0 0 0 0 0 0 STD5.60
2026-07-17 18:22:12 11 15.30 0.055000 41.649648 41.62752893 0 0 0 0 0 0 0 0 STD5.60
2026-07-17 18:17:09 19 18.50 0.095000 41.649648 41.62752893 0 0 0 0 0 0 0 0 STD5.60
2026-07-17 18:12:08 18 18.60 0.090000 41.649648 41.62752893 0 0 0 0 0 0 0 0 STD5.60
2026-07-17 18:07:06 22 18.10 0.110000 41.649648 41.62752893 0 0 0 0 0 0 0 0 STD5.60
2026-07-17 18:02:04 23 17.60 0.115000 41.649648 41.62752893 0 0 0 0 0 0 0 0 STD5.60
2026-07-17 17:57:02 19 18.90 0.095000 41.649648 41.62752893 0 0 0 0 0 0 0 0 STD5.60
2026-07-17 17:52:01 15 18.70 0.075000 41.649648 41.62752893 0 0 0 0 0 0 0 0 STD5.60
2026-07-17 17:46:58 22 17.70 0.110000 41.649648 41.62752893 0 0 0 0 0 0 0 0 STD5.60
2026-07-17 17:41:56 19 17.20 0.095000 41.649648 41.62752893 0 0 0 0 0 0 0 0 STD5.60
2026-07-17 17:36:54 14 15.70 0.070000 41.649648 41.62752893 0 0 0 0 0 0 0 0 STD5.60
2026-07-17 17:31:52 12 16.20 0.060000 41.649648 41.62752893 0 0 0 0 0 0 0 0 STD5.60
2026-07-17 17:26:49 13 17.60 0.065000 41.649648 41.62752893 0 0 0 0 0 0 0 0 STD5.60
2026-07-17 17:21:47 19 19.70 0.095000 41.649648 41.62752893 0 0 0 0 0 0 0 0 STD5.60
2026-07-17 17:16:45 22 19.60 0.110000 41.649648 41.62752893 0 0 0 0 0 0 0 0 STD5.60
2026-07-17 17:11:43 23 18.40 0.115000 41.649648 41.62752893 0 0 0 0 0 0 0 0 STD5.60
2026-07-17 17:06:41 16 17.50 0.080000 41.649648 41.62752893 0 0 0 0 0 0 0 0 STD5.60
2026-07-17 17:01:39 14 17.00 0.070000 41.649648 41.62752893 0 0 0 0 0 0 0 0 STD5.60
2026-07-17 16:56:37 12 17.10 0.060000 41.649648 41.62752893 0 0 0 0 0 0 0 0 STD5.60
2026-07-17 16:51:35 21 19.00 0.105000 41.649648 41.62752893 0 0 0 0 0 0 0 0 STD5.60
2026-07-17 16:46:33 16 18.10 0.080000 41.649648 41.62752893 0 0 0 0 0 0 0 0 STD5.60
2026-07-17 16:41:31 16 17.50 0.080000 41.649648 41.62752893 0 0 0 0 0 0 0 0 STD5.60
2026-07-17 16:36:29 19 17.80 0.095000 41.649648 41.62752893 0 0 0 0 0 0 0 0 STD5.60
2026-07-17 16:31:28 12 17.90 0.060000 41.649648 41.62752893 0 0 0 0 0 0 0 0 STD5.60
2026-07-17 16:26:13 23 17.70 0.115000 41.649648 41.62752893 0 0 0 0 0 0 0 0 STD5.60
2026-07-17 16:21:12 16 16.30 0.080000 41.649648 41.62752893 0 0 0 0 0 0 0 0 STD5.60
2026-07-17 16:16:09 17 16.40 0.085000 41.649648 41.62752893 0 0 0 0 0 0 0 0 STD5.60
2026-07-17 16:11:07 9 17.80 0.045000 41.649648 41.62752893 0 0 0 0 0 0 0 0 STD5.60
2026-07-17 16:06:05 19 21.10 0.095000 41.649648 41.62752893 0 0 0 0 0 0 0 0 STD5.60
2026-07-17 16:01:03 13 20.10 0.065000 41.649648 41.62752893 0 0 0 0 0 0 0 0 STD5.60
2026-07-17 15:56:04 26 18.50 0.130000 41.649648 41.62752893 0 0 0 0 0 0 0 0 STD5.60
2026-07-17 15:51:00 18 18.30 0.090000 41.649648 41.62752893 0 0 0 0 0 0 0 0 STD5.60
2026-07-17 15:45:57 22 15.90 0.110000 41.649648 41.62752893 0 0 0 0 0 0 0 0 STD5.60
2026-07-17 15:40:55 17 16.90 0.085000 41.649648 41.62752893 0 0 0 0 0 0 0 0 STD5.60
2026-07-17 15:35:53 17 18.30 0.085000 41.649648 41.62752893 0 0 0 0 0 0 0 0 STD5.60
2026-07-17 15:30:51 10 17.70 0.050000 41.649648 41.62752893 0 0 0 0 0 0 0 0 STD5.60
2026-07-17 15:25:46 20 17.30 0.100000 41.649648 41.62752893 0 0 0 0 0 0 0 0 STD5.60
2026-07-17 15:20:45 15 16.90 0.075000 41.649648 41.62752893 0 0 0 0 0 0 0 0 STD5.60
2026-07-17 15:15:43 20 17.80 0.100000 41.649648 41.62752893 0 0 0 0 0 0 0 0 STD5.60
2026-07-17 15:10:41 20 18.90 0.100000 41.649648 41.62752893 0 0 0 0 0 0 0 0 STD5.60
2026-07-17 15:05:39 18 20.00 0.090000 41.649648 41.62752893 0 0 0 0 0 0 0 0 STD5.60
2026-07-17 15:00:37 18 20.70 0.090000 41.649648 41.62752893 0 0 0 0 0 0 0 0 STD5.60
2026-07-17 14:55:34 20 18.90 0.100000 41.649648 41.62752893 0 0 0 0 0 0 0 0 STD5.60
2026-07-17 14:50:33 16 18.60 0.080000 41.649648 41.62752893 0 0 0 0 0 0 0 0 STD5.60
2026-07-17 14:45:31 26 21.60 0.130000 41.649648 41.62752893 0 0 0 0 0 0 0 0 STD5.60
2026-07-17 14:40:29 19 20.30 0.095000 41.649648 41.62752893 0 0 0 0 0 0 0 0 STD5.60
2026-07-17 14:35:27 23 17.10 0.115000 41.649648 41.62752893 0 0 0 0 0 0 0 0 STD5.60
2026-07-17 14:30:25 16 17.50 0.080000 41.649648 41.62752893 0 0 0 0 0 0 0 0 STD5.60
2026-07-17 14:25:21 17 17.30 0.085000 41.649648 41.62752893 0 0 0 0 0 0 0 0 STD5.60
2026-07-17 14:20:19 20 16.60 0.100000 41.649648 41.62752893 0 0 0 0 0 0 0 0 STD5.60
2026-07-17 14:15:17 10 18.90 0.050000 41.649648 41.62752893 0 0 0 0 0 0 0 0 STD5.60
2026-07-17 14:10:15 19 19.30 0.095000 41.649648 41.62752893 0 0 0 0 0 0 0 0 STD5.60
2026-07-17 14:05:14 20 19.10 0.100000 41.649648 41.62752893 0 0 0 0 0 0 0 0 STD5.60
2026-07-17 14:00:11 13 18.80 0.065000 41.649648 41.62752893 0 0 0 0 0 0 0 0 STD5.60
2026-07-17 13:55:09 18 17.90 0.090000 41.649648 41.62752893 0 0 0 0 0 0 0 0 STD5.60
2026-07-17 13:50:08 15 19.30 0.075000 41.649648 41.62752893 0 0 0 0 0 0 0 0 STD5.60
2026-07-17 13:45:06 20 19.70 0.100000 41.649648 41.62752893 0 0 0 0 0 0 0 0 STD5.60
2026-07-17 13:40:04 17 18.80 0.085000 41.649648 41.62752893 0 0 0 0 0 0 0 0 STD5.60
2026-07-17 13:35:02 16 17.00 0.080000 41.649648 41.62752893 0 0 0 0 0 0 0 0 STD5.60
2026-07-17 13:30:00 21 7.50 0.105000 41.649648 41.62752893 0 0 0 0 0 0 0 0 STD5.60
2026-07-17 13:24:56 18 17.50 0.090000 41.649648 41.62752893 0 0 0 0 0 0 0 0 STD5.60
2026-07-17 13:19:54 20 17.50 0.100000 41.649648 41.62752893 0 0 0 0 0 0 0 0 STD5.60
2026-07-17 13:14:52 20 18.70 0.100000 41.649648 41.62752893 0 0 0 0 0 0 0 0 STD5.60
2026-07-17 13:09:50 14 20.10 0.070000 41.649648 41.62752893 0 0 0 0 0 0 0 0 STD5.60
2026-07-17 13:04:48 22 18.40 0.110000 41.649648 41.62752893 0 0 0 0 0 0 0 0 STD5.60
2026-07-17 12:59:46 20 15.10 0.100000 41.649648 41.62752893 0 0 0 0 0 0 0 0 STD5.60
2026-07-17 12:54:44 23 15.90 0.115000 41.649648 41.62752893 0 0 0 0 0 0 0 0 STD5.60
2026-07-17 12:49:42 22 17.00 0.110000 41.649648 41.62752893 0 0 0 0 0 0 0 0 STD5.60
2026-07-17 12:44:40 16 16.80 0.080000 41.649648 41.62752893 0 0 0 0 0 0 0 0 STD5.60
2026-07-17 12:39:38 20 17.20 0.100000 41.649648 41.62752893 0 0 0 0 0 0 0 0 STD5.60
2026-07-17 12:34:36 16 17.00 0.080000 41.649648 41.62752893 0 0 0 0 0 0 0 0 STD5.60
2026-07-17 12:29:34 15 16.20 0.075000 41.649648 41.62752893 0 0 0 0 0 0 0 0 STD5.60
2026-07-17 12:24:29 15 16.30 0.075000 41.649648 41.62752893 0 0 0 0 0 0 0 0 STD5.60
2026-07-17 12:19:27 25 16.90 0.125000 41.649648 41.62752893 0 0 0 0 0 0 0 0 STD5.60
2026-07-17 12:14:28 22 17.60 0.110000 41.649648 41.62752893 0 0 0 0 0 0 0 0 STD5.60
2026-07-17 12:09:24 23 18.90 0.115000 41.649648 41.62752893 0 0 0 0 0 0 0 0 STD5.60
2026-07-17 12:04:21 20 20.10 0.100000 41.649648 41.62752893 0 0 0 0 0 0 0 0 STD5.60
2026-07-17 11:59:19 20 19.40 0.100000 41.649648 41.62752893 0 0 0 0 0 0 0 0 STD5.60
2026-07-17 11:54:17 14 19.40 0.070000 41.649648 41.62752893 0 0 0 0 0 0 0 0 STD5.60
2026-07-17 11:49:15 19 18.50 0.095000 41.649648 41.62752893 0 0 0 0 0 0 0 0 STD5.60
2026-07-17 11:44:13 21 18.90 0.105000 41.649648 41.62752893 0 0 0 0 0 0 0 0 STD5.60
2026-07-17 11:39:11 21 19.80 0.105000 41.649648 41.62752893 0 0 0 0 0 0 0 0 STD5.60
2026-07-17 11:34:10 20 18.50 0.100000 41.649648 41.62752893 0 0 0 0 0 0 0 0 STD5.60
2026-07-17 11:29:08 21 17.20 0.105000 41.649648 41.62752893 0 0 0 0 0 0 0 0 STD5.60
2026-07-17 11:23:53 21 17.10 0.105000 41.649648 41.62752893 0 0 0 0 0 0 0 0 STD5.60
2026-07-17 11:18:51 17 18.50 0.085000 41.649648 41.62752893 0 0 0 0 0 0 0 0 STD5.60
2026-07-17 11:13:49 19 17.00 0.095000 41.649648 41.62752893 0 0 0 0 0 0 0 0 STD5.60
2026-07-17 11:08:47 17 18.30 0.085000 41.649648 41.62752893 0 0 0 0 0 0 0 0 STD5.60
2026-07-17 11:03:45 17 19.60 0.085000 41.649648 41.62752893 0 0 0 0 0 0 0 0 STD5.60
2026-07-17 10:58:43 22 17.50 0.110000 41.649648 41.62752893 0 0 0 0 0 0 0 0 STD5.60
2026-07-17 10:53:41 15 16.90 0.075000 41.649648 41.62752893 0 0 0 0 0 0 0 0 STD5.60
2026-07-17 10:48:39 14 19.30 0.070000 41.649648 41.62752893 0 0 0 0 0 0 0 0 STD5.60
2026-07-17 10:43:37 13 19.10 0.065000 41.649648 41.62752893 0 0 0 0 0 0 0 0 STD5.60
2026-07-17 10:38:35 15 17.20 0.075000 41.649648 41.62752893 0 0 0 0 0 0 0 0 STD5.60
2026-07-17 10:33:34 13 16.40 0.065000 41.649648 41.62752893 0 0 0 0 0 0 0 0 STD5.60
2026-07-17 10:28:31 15 16.50 0.075000 41.649648 41.62752893 0 0 0 0 0 0 0 0 STD5.60
2026-07-17 10:23:28 15 19.20 0.075000 41.649648 41.62752893 0 0 0 0 0 0 0 0 STD5.60
2026-07-17 10:18:26 18 20.50 0.090000 41.649648 41.62752893 0 0 0 0 0 0 0 0 STD5.60
2026-07-17 10:13:24 25 18.10 0.125000 41.649648 41.62752893 0 0 0 0 0 0 0 0 STD5.60
2026-07-17 10:08:22 15 17.10 0.075000 41.649648 41.62752893 0 0 0 0 0 0 0 0 STD5.60
2026-07-17 10:03:20 16 18.70 0.080000 41.649648 41.62752893 0 0 0 0 0 0 0 0 STD5.60
2026-07-17 09:58:18 16 20.50 0.080000 41.649648 41.62752893 0 0 0 0 0 0 0 0 STD5.60
2026-07-17 09:53:16 27 18.60 0.135000 41.649648 41.62752893 0 0 0 0 0 0 0 0 STD5.60
2026-07-17 09:48:14 14 16.50 0.070000 41.649648 41.62752893 0 0 0 0 0 0 0 0 STD5.60
2026-07-17 09:43:12 18 17.20 0.090000 41.649648 41.62752893 0 0 0 0 0 0 0 0 STD5.60
2026-07-17 09:38:10 12 17.70 0.060000 41.649648 41.62752893 0 0 0 0 0 0 0 0 STD5.60
2026-07-17 09:33:08 18 18.00 0.090000 41.649648 41.62752893 0 0 0 0 0 0 0 0 STD5.60
2026-07-17 09:28:06 14 17.40 0.070000 41.649648 41.62752893 0 0 0 0 0 0 0 0 STD5.60
2026-07-17 09:23:02 15 16.50 0.075000 41.649648 41.62752893 0 0 0 0 0 0 0 0 STD5.60
2026-07-17 09:18:01 11 18.40 0.055000 41.649648 41.62752893 0 0 0 0 0 0 0 0 STD5.60
2026-07-17 09:12:58 13 18.30 0.065000 41.649648 41.62752893 0 0 0 0 0 0 0 0 STD5.60
2026-07-17 09:07:56 20 16.70 0.100000 41.649648 41.62752893 0 0 0 0 0 0 0 0 STD5.60
2026-07-17 09:02:55 8 16.90 0.040000 41.649648 41.62752893 0 0 0 0 0 0 0 0 STD5.60
2026-07-17 08:57:52 18 16.30 0.090000 41.649648 41.62752893 0 0 0 0 0 0 0 0 STD5.60
2026-07-17 08:52:50 17 17.90 0.085000 41.649648 41.62752893 0 0 0 0 0 0 0 0 STD5.60
2026-07-17 08:47:48 19 19.00 0.095000 41.649648 41.62752893 0 0 0 0 0 0 0 0 STD5.60
2026-07-17 08:42:46 16 17.50 0.080000 41.649648 41.62752893 0 0 0 0 0 0 0 0 STD5.60
2026-07-17 08:37:44 13 18.80 0.065000 41.649648 41.62752893 0 0 0 0 0 0 0 0 STD5.60
2026-07-17 08:32:42 15 20.80 0.075000 41.649648 41.62752893 0 0 0 0 0 0 0 0 STD5.60
2026-07-17 08:27:40 30 17.10 0.150000 41.649648 41.62752893 0 0 0 0 0 0 0 0 STD5.60
2026-07-17 08:22:36 16 15.40 0.080000 41.649648 41.62752893 0 0 0 0 0 0 0 0 STD5.60
2026-07-17 08:17:34 15 17.20 0.075000 41.649648 41.62752893 0 0 0 0 0 0 0 0 STD5.60
2026-07-17 08:12:32 19 16.60 0.095000 41.649648 41.62752893 0 0 0 0 0 0 0 0 STD5.60
2026-07-17 08:07:29 16 19.10 0.080000 41.649648 41.62752893 0 0 0 0 0 0 0 0 STD5.60
2026-07-17 08:02:28 19 21.50 0.095000 41.649648 41.62752893 0 0 0 0 0 0 0 0 STD5.60
2026-07-17 07:57:25 16 21.20 0.080000 41.649648 41.62752893 0 0 0 0 0 0 0 0 STD5.60
2026-07-17 07:52:23 21 20.20 0.105000 41.649648 41.62752893 0 0 0 0 0 0 0 0 STD5.60
2026-07-17 07:47:21 18 19.50 0.090000 41.649648 41.62752893 0 0 0 0 0 0 0 0 STD5.60
2026-07-17 07:42:19 15 18.70 0.075000 41.649648 41.62752893 0 0 0 0 0 0 0 0 STD5.60
2026-07-17 07:37:17 18 17.90 0.090000 41.649648 41.62752893 0 0 0 0 0 0 0 0 STD5.60
2026-07-17 07:32:15 13 20.40 0.065000 41.649648 41.62752893 0 0 0 0 0 0 0 0 STD5.60
2026-07-17 07:27:13 20 20.70 0.100000 41.649648 41.62752893 0 0 0 0 0 0 0 0 STD5.60
2026-07-17 07:22:07 17 18.10 0.085000 41.649648 41.62752893 0 0 0 0 0 0 0 0 STD5.60
2026-07-17 07:17:05 13 17.90 0.065000 41.649648 41.62752893 0 0 0 0 0 0 0 0 STD5.60
2026-07-17 07:12:03 29 16.20 0.145000 41.649648 41.62752893 0 0 0 0 0 0 0 0 STD5.60
2026-07-17 07:07:01 16 18.10 0.080000 41.649648 41.62752893 0 0 0 0 0 0 0 0 STD5.60
2026-07-17 07:01:59 22 20.40 0.110000 41.649648 41.62752893 0 0 0 0 0 0 0 0 STD5.60
2026-07-17 06:56:56 20 17.30 0.100000 41.649648 41.62752893 0 0 0 0 0 0 0 0 STD5.60
2026-07-17 06:51:54 8 16.10 0.040000 41.649648 41.62752893 0 0 0 0 0 0 0 0 STD5.60
2026-07-17 06:46:52 17 17.20 0.085000 41.649648 41.62752893 0 0 0 0 0 0 0 0 STD5.60
2026-07-17 06:41:49 17 17.80 0.085000 41.649648 41.62752893 0 0 0 0 0 0 0 0 STD5.60
2026-07-17 06:36:47 18 17.20 0.090000 41.649648 41.62752893 0 0 0 0 0 0 0 0 STD5.60
2026-07-17 06:31:46 15 18.10 0.075000 41.649648 41.62752893 0 0 0 0 0 0 0 0 STD5.60
2026-07-17 06:26:44 13 18.60 0.065000 41.649648 41.62752893 0 0 0 0 0 0 0 0 STD5.60
2026-07-17 06:21:40 22 18.80 0.110000 41.649648 41.62752893 0 0 0 0 0 0 0 0 STD5.60
2026-07-17 06:16:38 22 16.60 0.110000 41.649648 41.62752893 0 0 0 0 0 0 0 0 STD5.60
2026-07-17 06:11:36 10 14.10 0.050000 41.649648 41.62752893 0 0 0 0 0 0 0 0 STD5.60
2026-07-17 06:06:34 17 16.50 0.085000 41.649648 41.62752893 0 0 0 0 0 0 0 0 STD5.60
2026-07-17 06:01:32 20 17.50 0.100000 41.649648 41.62752893 0 0 0 0 0 0 0 0 STD5.60
2026-07-17 05:56:30 16 17.10 0.080000 41.649648 41.62752893 0 0 0 0 0 0 0 0 STD5.60
2026-07-17 05:51:28 20 16.40 0.100000 41.649648 41.62752893 0 0 0 0 0 0 0 0 STD5.60
2026-07-17 05:46:26 19 16.90 0.095000 41.649648 41.62752893 0 0 0 0 0 0 0 0 STD5.60
2026-07-17 05:41:23 19 18.90 0.095000 41.649648 41.62752893 0 0 0 0 0 0 0 0 STD5.60
2026-07-17 05:36:22 18 18.70 0.090000 41.649648 41.62752893 0 0 0 0 0 0 0 0 STD5.60
2026-07-17 05:31:19 20 19.30 0.100000 41.649648 41.62752893 0 0 0 0 0 0 0 0 STD5.60
2026-07-17 05:26:17 22 19.50 0.110000 41.649648 41.62752893 0 0 0 0 0 0 0 0 STD5.60
2026-07-17 05:21:11 23 16.70 0.115000 41.649648 41.62752893 0 0 0 0 0 0 0 0 STD5.60
2026-07-17 05:16:09 18 17.60 0.090000 41.649648 41.62752893 0 0 0 0 0 0 0 0 STD5.60
2026-07-17 05:11:07 21 19.30 0.105000 41.649648 41.62752893 0 0 0 0 0 0 0 0 STD5.60
2026-07-17 05:06:05 15 18.60 0.075000 41.649648 41.62752893 0 0 0 0 0 0 0 0 STD5.60
2026-07-17 05:01:03 21 19.60 0.105000 41.649648 41.62752893 0 0 0 0 0 0 0 0 STD5.60
2026-07-17 04:56:01 26 18.90 0.130000 41.649648 41.62752893 0 0 0 0 0 0 0 0 STD5.60
2026-07-17 04:50:59 17 18.70 0.085000 41.649648 41.62752893 0 0 0 0 0 0 0 0 STD5.60
2026-07-17 04:45:57 23 20.20 0.115000 41.649648 41.62752893 0 0 0 0 0 0 0 0 STD5.60
2026-07-17 04:40:54 21 19.90 0.105000 41.649648 41.62752893 0 0 0 0 0 0 0 0 STD5.60
2026-07-17 04:35:52 20 18.40 0.100000 41.649648 41.62752893 0 0 0 0 0 0 0 0 STD5.60
2026-07-17 04:30:50 16 15.60 0.080000 41.649648 41.62752893 0 0 0 0 0 0 0 0 STD5.60
2026-07-17 04:25:48 15 13.80 0.075000 41.649648 41.62752893 0 0 0 0 0 0 0 0 STD5.60
2026-07-17 04:20:43 11 14.50 0.055000 41.649648 41.62752893 0 0 0 0 0 0 0 0 STD5.60
2026-07-17 04:15:41 13 17.70 0.065000 41.649648 41.62752893 0 0 0 0 0 0 0 0 STD5.60
2026-07-17 04:10:39 22 20.80 0.110000 41.649648 41.62752893 0 0 0 0 0 0 0 0 STD5.60
2026-07-17 04:05:37 26 18.00 0.130000 41.649648 41.62752893 0 0 0 0 0 0 0 0 STD5.60
2026-07-17 04:00:35 11 16.20 0.055000 41.649648 41.62752893 0 0 0 0 0 0 0 0 STD5.60
2026-07-17 03:55:33 14 18.40 0.070000 41.649648 41.62752893 0 0 0 0 0 0 0 0 STD5.60
2026-07-17 03:50:30 13 17.50 0.065000 41.649648 41.62752893 0 0 0 0 0 0 0 0 STD5.60
2026-07-17 03:45:28 14 16.40 0.070000 41.649648 41.62752893 0 0 0 0 0 0 0 0 STD5.60
2026-07-17 03:40:26 17 16.80 0.085000 41.649648 41.62752893 0 0 0 0 0 0 0 0 STD5.60
2026-07-17 03:35:24 13 18.40 0.065000 41.649648 41.62752893 0 0 0 0 0 0 0 0 STD5.60
2026-07-17 03:30:22 21 19.00 0.105000 41.649648 41.62752893 0 0 0 0 0 0 0 0 STD5.60
2026-07-17 03:25:20 23 18.90 0.115000 41.649648 41.62752893 0 0 0 0 0 0 0 0 STD5.60
2026-07-17 03:20:16 18 17.80 0.090000 41.649648 41.62752893 0 0 0 0 0 0 0 0 STD5.60
2026-07-17 03:15:14 19 16.00 0.095000 41.649648 41.62752893 0 0 0 0 0 0 0 0 STD5.60
2026-07-17 03:10:12 12 18.30 0.060000 41.649648 41.62752893 0 0 0 0 0 0 0 0 STD5.60
2026-07-17 03:05:10 21 17.10 0.105000 41.649648 41.62752893 0 0 0 0 0 0 0 0 STD5.60
2026-07-17 03:00:11 15 15.00 0.075000 41.649648 41.62752893 0 0 0 0 0 0 0 0 STD5.60
2026-07-17 02:55:06 17 16.70 0.085000 41.649648 41.62752893 0 0 0 0 0 0 0 0 STD5.60
2026-07-17 02:50:05 23 17.70 0.115000 41.649648 41.62752893 0 0 0 0 0 0 0 0 STD5.60
2026-07-17 02:45:02 19 19.50 0.095000 41.649648 41.62752893 0 0 0 0 0 0 0 0 STD5.60
2026-07-17 02:39:59 29 19.40 0.145000 41.649648 41.62752893 0 0 0 0 0 0 0 0 STD5.60
2026-07-17 02:34:57 20 18.20 0.100000 41.649648 41.62752893 0 0 0 0 0 0 0 0 STD5.60
2026-07-17 02:29:55 15 16.70 0.075000 41.649648 41.62752893 0 0 0 0 0 0 0 0 STD5.60
2026-07-17 02:24:53 17 16.80 0.085000 41.649648 41.62752893 0 0 0 0 0 0 0 0 STD5.60
2026-07-17 02:19:49 18 18.80 0.090000 41.649648 41.62752893 0 0 0 0 0 0 0 0 STD5.60
2026-07-17 02:14:47 24 17.80 0.120000 41.649648 41.62752893 0 0 0 0 0 0 0 0 STD5.60
2026-07-17 02:09:45 16 17.40 0.080000 41.649648 41.62752893 0 0 0 0 0 0 0 0 STD5.60
2026-07-17 02:04:43 19 18.50 0.095000 41.649648 41.62752893 0 0 0 0 0 0 0 0 STD5.60
2026-07-17 01:59:41 17 19.00 0.085000 41.649648 41.62752893 0 0 0 0 0 0 0 0 STD5.60
2026-07-17 01:54:39 23 17.80 0.115000 41.649648 41.62752893 0 0 0 0 0 0 0 0 STD5.60
2026-07-17 01:49:37 18 16.40 0.090000 41.649648 41.62752893 0 0 0 0 0 0 0 0 STD5.60
2026-07-17 01:44:35 10 17.00 0.050000 41.649648 41.62752893 0 0 0 0 0 0 0 0 STD5.60
2026-07-17 01:39:32 19 18.20 0.095000 41.649648 41.62752893 0 0 0 0 0 0 0 0 STD5.60
2026-07-17 01:34:30 20 19.60 0.100000 41.649648 41.62752893 0 0 0 0 0 0 0 0 STD5.60
2026-07-17 01:29:28 21 19.90 0.105000 41.649648 41.62752893 0 0 0 0 0 0 0 0 STD5.60
2026-07-17 01:24:26 21 19.70 0.105000 41.649648 41.62752893 0 0 0 0 0 0 0 0 STD5.60
2026-07-17 01:19:22 26 19.40 0.130000 41.649648 41.62752893 0 0 0 0 0 0 0 0 STD5.60
2026-07-17 01:14:20 18 17.60 0.090000 41.649648 41.62752893 0 0 0 0 0 0 0 0 STD5.60
2026-07-17 01:09:18 9 15.90 0.045000 41.649648 41.62752893 0 0 0 0 0 0 0 0 STD5.60
2026-07-17 01:04:16 10 16.80 0.050000 41.649648 41.62752893 0 0 0 0 0 0 0 0 STD5.60
2026-07-17 00:59:14 19 18.50 0.095000 41.649648 41.62752893 0 0 0 0 0 0 0 0 STD5.60
2026-07-17 00:54:12 19 18.80 0.095000 41.649648 41.62752893 0 0 0 0 0 0 0 0 STD5.60
2026-07-17 00:49:10 19 16.10 0.095000 41.649648 41.62752893 0 0 0 0 0 0 0 0 STD5.60
2026-07-17 00:44:09 11 15.90 0.055000 41.649648 41.62752893 0 0 0 0 0 0 0 0 STD5.60
2026-07-17 00:39:06 27 19.40 0.135000 41.649648 41.62752893 0 0 0 0 0 0 0 0 STD5.60
2026-07-17 00:34:04 25 20.20 0.125000 41.649648 41.62752893 0 0 0 0 0 0 0 0 STD5.60
2026-07-17 00:29:01 17 20.60 0.085000 41.649648 41.62752893 0 0 0 0 0 0 0 0 STD5.60
2026-07-17 00:23:59 18 19.20 0.090000 41.649648 41.62752893 0 0 0 0 0 0 0 0 STD5.60
2026-07-17 00:18:54 17 16.10 0.085000 41.649648 41.62752893 0 0 0 0 0 0 0 0 STD5.60
2026-07-17 00:13:53 14 16.40 0.070000 41.649648 41.62752893 0 0 0 0 0 0 0 0 STD5.60
2026-07-17 00:08:50 20 19.50 0.100000 41.649648 41.62752893 0 0 0 0 0 0 0 0 STD5.60
2026-07-17 00:03:48 18 19.20 0.090000 41.649648 41.62752893 0 0 0 0 0 0 0 0 STD5.60
2026-07-16 23:58:46 21 18.50 0.105000 41.649648 41.62752893 0 0 0 0 0 0 0 0 STD5.60
2026-07-16 23:53:43 24 17.90 0.120000 41.649648 41.62752893 0 0 0 0 0 0 0 0 STD5.60
2026-07-16 23:48:41 19 17.40 0.095000 41.649648 41.62752893 0 0 0 0 0 0 0 0 STD5.60
2026-07-16 23:43:39 12 21.60 0.060000 41.649648 41.62752893 0 0 0 0 0 0 0 0 STD5.60
2026-07-16 23:38:37 21 20.60 0.105000 41.649648 41.62752893 0 0 0 0 0 0 0 0 STD5.60
2026-07-16 23:33:38 13 16.50 0.065000 41.649648 41.62752893 0 0 0 0 0 0 0 0 STD5.60
2026-07-16 23:28:33 18 18.70 0.090000 41.649648 41.62752893 0 0 0 0 0 0 0 0 STD5.60
2026-07-16 23:23:31 23 17.80 0.115000 41.649648 41.62752893 0 0 0 0 0 0 0 0 STD5.60
2026-07-16 23:18:27 13 15.30 0.065000 41.649648 41.62752893 0 0 0 0 0 0 0 0 STD5.60
2026-07-16 23:13:25 11 16.70 0.055000 41.649648 41.62752893 0 0 0 0 0 0 0 0 STD5.60
2026-07-16 23:08:23 23 17.30 0.115000 41.649648 41.62752893 0 0 0 0 0 0 0 0 STD5.60
2026-07-16 23:03:21 19 18.30 0.095000 41.649648 41.62752893 0 0 0 0 0 0 0 0 STD5.60
2026-07-16 22:58:19 17 18.90 0.085000 41.649648 41.62752893 0 0 0 0 0 0 0 0 STD5.60
2026-07-16 22:53:17 25 16.40 0.125000 41.649648 41.62752893 0 0 0 0 0 0 0 0 STD5.60
2026-07-16 22:48:15 18 16.10 0.090000 41.649648 41.62752893 0 0 0 0 0 0 0 0 STD5.60
2026-07-16 22:43:13 15 18.20 0.075000 41.649648 41.62752893 0 0 0 0 0 0 0 0 STD5.60
2026-07-16 22:38:11 16 18.50 0.080000 41.649648 41.62752893 0 0 0 0 0 0 0 0 STD5.60
2026-07-16 22:33:09 12 18.50 0.060000 41.649648 41.62752893 0 0 0 0 0 0 0 0 STD5.60
2026-07-16 22:28:07 16 18.70 0.080000 41.649648 41.62752893 0 0 0 0 0 0 0 0 STD5.60
2026-07-16 22:23:05 23 17.70 0.115000 41.649648 41.62752893 0 0 0 0 0 0 0 0 STD5.60
2026-07-16 22:18:01 16 14.80 0.080000 41.649648 41.62752893 0 0 0 0 0 0 0 0 STD5.60
2026-07-16 22:12:59 13 14.50 0.065000 41.649648 41.62752893 0 0 0 0 0 0 0 0 STD5.60
2026-07-16 22:07:57 20 16.90 0.100000 41.649648 41.62752893 0 0 0 0 0 0 0 0 STD5.60
2026-07-16 22:02:55 16 18.80 0.080000 41.649648 41.62752893 0 0 0 0 0 0 0 0 STD5.60
2026-07-16 21:57:53 26 19.80 0.130000 41.649648 41.62752893 0 0 0 0 0 0 0 0 STD5.60
2026-07-16 21:52:50 21 18.90 0.105000 41.649648 41.62752893 0 0 0 0 0 0 0 0 STD5.60
2026-07-16 21:47:48 20 15.70 0.100000 41.649648 41.62752893 0 0 0 0 0 0 0 0 STD5.60
2026-07-16 21:42:46 20 16.00 0.100000 41.649648 41.62752893 0 0 0 0 0 0 0 0 STD5.60
2026-07-16 21:37:44 15 18.20 0.075000 41.649648 41.62752893 0 0 0 0 0 0 0 0 STD5.60
2026-07-16 21:32:42 22 16.40 0.110000 41.649648 41.62752893 0 0 0 0 0 0 0 0 STD5.60
2026-07-16 21:27:40 18 16.80 0.090000 41.649648 41.62752893 0 0 0 0 0 0 0 0 STD5.60
2026-07-16 21:22:38 20 18.90 0.100000 41.649648 41.62752893 0 0 0 0 0 0 0 0 STD5.60
2026-07-16 21:17:33 17 19.30 0.085000 41.649648 41.62752893 0 0 0 0 0 0 0 0 STD5.60
2026-07-16 21:12:31 16 17.30 0.080000 41.649648 41.62752893 0 0 0 0 0 0 0 0 STD5.60
2026-07-16 21:07:29 13 17.10 0.065000 41.649648 41.62752893 0 0 0 0 0 0 0 0 STD5.60
2026-07-16 21:02:26 19 20.00 0.095000 41.649648 41.62752893 0 0 0 0 0 0 0 0 STD5.60
2026-07-16 20:57:24 19 19.30 0.095000 41.649648 41.62752893 0 0 0 0 0 0 0 0 STD5.60
2026-07-16 20:52:22 14 17.20 0.070000 41.649648 41.62752893 0 0 0 0 0 0 0 0 STD5.60
2026-07-16 20:47:20 16 18.20 0.080000 41.649648 41.62752893 0 0 0 0 0 0 0 0 STD5.60
2026-07-16 20:42:18 23 17.20 0.115000 41.649648 41.62752893 0 0 0 0 0 0 0 0 STD5.60
2026-07-16 20:37:16 15 17.40 0.075000 41.649648 41.62752893 0 0 0 0 0 0 0 0 STD5.60
2026-07-16 20:32:14 23 20.80 0.115000 41.649648 41.62752893 0 0 0 0 0 0 0 0 STD5.60
2026-07-16 20:27:11 25 19.80 0.125000 41.649648 41.62752893 0 0 0 0 0 0 0 0 STD5.60
2026-07-16 20:22:10 15 16.20 0.075000 41.649648 41.62752893 0 0 0 0 0 0 0 0 STD5.60
2026-07-16 20:17:05 10 16.40 0.050000 41.649648 41.62752893 0 0 0 0 0 0 0 0 STD5.60
2026-07-16 20:12:04 17 17.10 0.085000 41.649648 41.62752893 0 0 0 0 0 0 0 0 STD5.60
2026-07-16 20:07:01 13 17.00 0.065000 41.649648 41.62752893 0 0 0 0 0 0 0 0 STD5.60
2026-07-16 20:01:59 20 18.90 0.100000 41.649648 41.62752893 0 0 0 0 0 0 0 0 STD5.60
2026-07-16 19:56:57 21 18.80 0.105000 41.649648 41.62752893 0 0 0 0 0 0 0 0 STD5.60
2026-07-16 19:51:55 14 17.70 0.070000 41.649648 41.62752893 0 0 0 0 0 0 0 0 STD5.60
2026-07-16 19:46:53 17 16.70 0.085000 41.649648 41.62752893 0 0 0 0 0 0 0 0 STD5.60
2026-07-16 19:41:51 10 17.30 0.050000 41.649648 41.62752893 0 0 0 0 0 0 0 0 STD5.60
2026-07-16 19:36:49 13 15.80 0.065000 41.649648 41.62752893 0 0 0 0 0 0 0 0 STD5.60
2026-07-16 19:31:47 14 16.00 0.070000 41.649648 41.62752893 0 0 0 0 0 0 0 0 STD5.60
2026-07-16 19:26:45 18 18.50 0.090000 41.649648 41.62752893 0 0 0 0 0 0 0 0 STD5.60
2026-07-16 19:21:43 17 17.40 0.085000 41.649648 41.62752893 0 0 0 0 0 0 0 0 STD5.60
2026-07-16 19:16:39 16 16.40 0.080000 41.649648 41.62752893 0 0 0 0 0 0 0 0 STD5.60
2026-07-16 19:11:37 18 18.20 0.090000 41.649648 41.62752893 0 0 0 0 0 0 0 0 STD5.60
Geiger Counter World Map       A real time radiation map.     Copyright 2015 All rights reserved.